TimeCDT,TemperatureF,Dew PointF,Humidity,Sea Level PressureIn,VisibilityMPH,Wind Direction,Wind SpeedMPH,Gust SpeedMPH,PrecipitationIn,Events,Conditions,WindDirDegrees,DateUTC
12:55 AM,37.0,24.1,59,30.32,10.0,NW,6.9,-,N/A,,Clear,320,2012-10-06 05:55:00
1:55 AM,40.3,23.0,50,30.32,10.0,NNW,6.9,-,N/A,,Overcast,340,2012-10-06 06:55:00
2:55 AM,41.0,20.8,45,30.32,10.0,North,10.4,-,N/A,,Overcast,350,2012-10-06 07:55:00
3:55 AM,37.8,19.4,48,30.31,10.0,NNW,5.8,-,N/A,,Clear,330,2012-10-06 08:55:00
4:55 AM,36.0,19.9,52,30.31,10.0,NNW,9.2,-,N/A,,Clear,330,2012-10-06 09:55:00
5:55 AM,31.6,21.2,65,30.34,10.0,SW,6.9,-,N/A,,Clear,220,2012-10-06 10:55:00
6:55 AM,30.7,20.8,67,30.36,10.0,West,4.6,-,N/A,,Clear,270,2012-10-06 11:55:00
7:55 AM,25.2,19.4,79,30.38,10.0,NW,4.6,-,N/A,,Clear,310,2012-10-06 12:55:00
8:55 AM,34.0,22.6,63,30.40,10.0,NW,3.5,-,N/A,,Clear,310,2012-10-06 13:55:00
9:55 AM,37.6,23.2,56,30.40,10.0,WSW,3.5,-,N/A,,Clear,250,2012-10-06 14:55:00
10:55 AM,42.8,23.5,47,30.40,10.0,NNW,10.4,-,N/A,,Partly Cloudy,340,2012-10-06 15:55:00
11:55 AM,44.1,23.9,45,30.38,10.0,NNW,11.5,18.4,N/A,,Clear,340,2012-10-06 16:55:00
12:55 PM,46.2,24.3,42,30.38,10.0,NNW,12.7,18.4,N/A,,Clear,340,2012-10-06 17:55:00
1:55 PM,46.6,23.9,41,30.35,10.0,North,10.4,21.9,N/A,,Overcast,350,2012-10-06 18:55:00
2:55 PM,47.1,24.8,42,30.32,10.0,NW,11.5,-,N/A,,Scattered Clouds,310,2012-10-06 19:55:00
3:55 PM,47.8,24.8,41,30.32,10.0,NNW,10.4,-,N/A,,Clear,340,2012-10-06 20:55:00
4:55 PM,46.8,25.0,43,30.31,10.0,NNW,10.4,-,N/A,,Mostly Cloudy,340,2012-10-06 21:55:00
5:55 PM,45.5,24.1,43,30.32,10.0,NNW,12.7,-,N/A,,Partly Cloudy,330,2012-10-06 22:55:00
6:55 PM,44.4,24.4,45,30.32,10.0,NW,10.4,-,N/A,,Overcast,310,2012-10-06 23:55:00
7:55 PM,42.8,25.7,51,30.33,10.0,WNW,5.8,-,N/A,,Overcast,300,2012-10-07 00:55:00
8:55 PM,43.3,24.4,47,30.34,10.0,NNW,10.4,-,N/A,,Overcast,340,2012-10-07 01:55:00
9:55 PM,36.9,24.4,61,30.34,10.0,NW,4.6,-,N/A,,Clear,310,2012-10-07 02:55:00
10:55 PM,34.9,23.4,63,30.34,10.0,West,4.6,-,N/A,,Clear,280,2012-10-07 03:55:00
11:55 PM,32.0,24.4,74,30.33,10.0,NW,4.6,-,N/A,,Clear,310,2012-10-07 04:55:00